Location: *
(46.1006°N, 1.8394°E)
Time: 02:52:06
(UTC+00:00)

Cosmos 389 Rocket - Pass Details

Date: 20 September 2019
Orbit: 444 x 478 km, 81.1° (Epoch: 19 October)

Event Time Altitude Azimuth Distance (km) Brightness Sun altitude
Rises 18:25:17 0° 3° (N) 2,454 6.2 -6.1°
Reaches altitude 10° 18:27:47 10° 21° (NNE) 1,576 5.0 -6.5°
Maximum altitude 18:30:20 19° 70° (ENE) 1,117 3.9 -6.9°
Drops below altitude 10° 18:32:53 10° 118° (ESE) 1,567 4.5 -7.4°
Enters shadow 18:33:25 - 123° (ESE) 1,736 4.8 -7.5°
